Simultaneous Nadir Overpasses (SNOs) Predictions

Prediction of SNOs between GOES-15 and NPP Satellite Orbit:

Table of predicted SNOs for the next 14.0 days since TLE Epoch: 3/30/2024
Index Date Time (GOES-15) GOES-15 Lat,Lon NPP Lat,Lon Distance(km) Time Diff (sec)
1 03/30/2024 09:11:57 -0.09, 61.22 0.42, 63.60 270.27 80
2 03/31/2024 21:31:06 0.09, 61.18 0.70, 58.31 325.91 80
3 04/01/2024 21:15:02 0.10, 61.18 -0.29, 62.84 189.39 80
4 04/03/2024 09:34:18 -0.10, 61.25 -0.96, 57.55 423.23 80
5 04/04/2024 09:18:15 -0.10, 61.26 0.10, 62.06 91.85 80
6 04/06/2024 21:21:19 0.10, 61.24 0.07, 61.32 10.13 80
7 04/09/2024 09:21:51 -0.10, 61.32 -0.28, 60.55 88.07 80
8 04/10/2024 09:05:46 -0.10, 61.33 0.73, 65.08 426.59 80
9 04/11/2024 21:24:54 0.10, 61.31 0.43, 59.80 171.31 80
10 04/12/2024 21:08:50 0.10, 61.32 -0.59, 64.33 343.15 80
